Location: Coupvray
(48.8929°N, 2.7967°E)
Time: 04:07:39
(UTC+00:00)

Okean 1-7 - Pass Details

Date: 14 July 2020
Orbit: 592 x 618 km, 82.5° (Epoch: 06 August)

Event Time Altitude Azimuth Distance (km) Brightness Sun altitude
Rises 01:11:01 0° 349° (N) 2,905 7.6 -17.5°
Reaches altitude 10° 01:13:15 10° 349° (NNW) 1,995 6.6 -17.3°
Maximum altitude 01:17:41 82° 263° (W) 631 3.0 -17.1°
Enters shadow 01:19:45 31° 178° (S) 1,089 3.8 -17.0°
